Location: Boursonne
(49.2024°N, 3.0468°E)
Time: 08:56:00
(UTC+00:00)

CSL-04 Debris - Pass Details

Date: 03 March 2021
Orbit: 826 x 848 km, 98.9° (Epoch: 13 April)

Event Time Altitude Azimuth Distance (km) Brightness Sun altitude
Rises 18:23:57 0° 153° (SSE) 3,374 7.1 -8.9°
Reaches altitude 10° 18:26:18 10° 150° (SSE) 2,447 6.3 -9.3°
Maximum altitude 18:31:40 65° 70° (ENE) 924 4.2 -10.2°
Drops below altitude 10° 18:37:06 10° 350° (N) 2,478 6.8 -11.0°
Sets 18:39:29 0° 348° (NNW) 3,419 7.6 -11.4°
